Theta_e
310 310 310 309 308 307 311 315 309 325 326 310 311 307 311 306 314 316 312 312 312 311 311 310 310 310 314 317 316 311 314 311 305 308 315 316 313 311 310 302 302 305 303 303
310 310 310 309 307 307 308 310 312 321 320 304 307 312 311 313 311 311 311 310 312 313 311 309 311 313 316 316 315 312 315 309 303 305 309 313 310 311 312 310 309 303 299 302
310 309 309 309 308 307 309 312 309 314 314 313 309 310 312 310 313 311 314 312 314 312 310 313 310 311 315 316 314 322 317 310 306 300 304 309 307 309 311 309 303 303 303 306
311 310 310 309 308 307 310 316 310 315 311 314 312 311 310 309 309 313 313 311 310 310 307 309 309 312 313 314 315 314 312 305 307 307 308 308 307 306 307 305 305 301 303 304
311 310 310 309 308 306 313 312 311 313 312 311 313 310 309 309 309 311 310 309 311 311 308 310 309 312 312 311 313 311 312 307 308 304 307 306 303 305 306 305 305 304 305 305
311 311 310 310 307 306 312 315 316 312 306 307 307 307 308 309 311 312 313 313 312 310 313 315 316 317 317 315 313 312 312 308 306 301 306 304 299 304 305 306 308 307 302 308
310 309 309 309 308 306 308 313 310 307 303 305 305 308 309 309 312 311 313 314 312 316 320 319 317 315 315 313 312 314 311 312 308 301 303 294 304 310 310 308 309 311 311 314
310 309 309 309 309 308 306 312 310 308 304 306 307 307 308 311 312 311 312 316 317 319 316 310 307 307 308 308 310 311 312 309 303 299 299 302 305 310 309 308 308 315 313 315
310 309 309 308 309 308 306 312 316 310 303 304 310 307 308 306 307 308 310 316 318 316 310 307 301 298 302 302 306 312 311 316 305 302 296 294 307 315 317 316 305 318 319 318
310 310 309 308 308 308 305 308 315 309 304 307 308 306 306 311 310 305 309 311 311 315 307 302 300 299 305 300 301 305 306 307 302 301 299 302 309 312 319 303 308 319 319 318
310 309 309 309 308 307 306 307 316 310 306 308 310 310 306 308 310 307 310 310 309 308 305 304 303 301 303 303 308 306 305 304 302 304 299 297 319 316 310 318 321 319 319 319
310 309 309 309 308 307 306 305 315 315 308 307 312 312 313 312 311 308 309 310 312 312 308 307 305 302 304 306 299 312 304 309 306 308 308 319 320 318 321 321 318 319 319 320
310 310 309 309 309 309 306 304 309 309 305 305 307 306 312 314 312 312 304 308 313 312 315 310 309 306 309 302 302 307 311 315 308 312 313 315 318 323 320 320 318 319 320 319
310 310 310 309 310 309 307 304 309 308 305 299 303 313 310 315 315 313 311 308 311 312 311 308 307 304 310 305 307 307 309 311 310 311 314 314 316 316 319 318 320 319 319 319
310 310 310 309 310 309 307 307 308 310 304 298 302 307 311 313 313 312 312 310 308 307 305 304 303 307 306 307 308 305 310 310 305 306 314 314 319 319 317 316 317 318 317 317
310 310 309 309 310 308 304 301 310 311 309 301 297 309 308 310 311 309 308 310 309 307 305 304 306 310 306 301 302 310 310 313 313 312 314 315 317 318 317 316 316 318 318 319
309 309 309 309 308 306 299 299 302 307 309 300 298 301 308 309 309 308 307 309 307 307 305 305 304 305 306 302 301 309 311 313 314 316 315 312 314 312 316 317 318 317 318 321
308 309 308 308 307 305 301 306 307 307 304 303 298 299 302 311 305 304 309 304 306 305 304 306 304 305 306 300 306 308 312 315 314 314 316 315 316 316 316 320 319 316 317 319
308 307 307 307 303 300 304 312 309 310 305 299 299 295 295 310 307 307 307 308 300 306 303 303 305 302 299 304 308 310 312 314 313 314 314 314 313 314 318 318 319 318 317 319
308 306 300 296 302 312 311 306 303 303 305 303 297 301 297 304 303 304 306 305 301 299 301 306 302 301 307 308 312 313 312 315 314 313 312 314 314 316 317 318 318 320 319 321
304 300 298 309 311 306 304 298 296 299 296 301 300 301 298 304 298 302 308 301 301 296 299 298 298 298 306 311 311 310 312 312 317 316 316 317 317 316 317 318 320 321 315 317
306 304 308 309 306 301 296 295 298 297 295 301 300 302 303 303 307 306 306 299 300 295 305 299 296 303 309 308 311 313 312 312 316 317 317 320 320 319 320 319 320 318 317 318
308 304 299 298 300 291 291 290 294 296 301 305 307 304 306 306 306 305 303 296 292 300 297 296 300 308 307 306 305 317 319 320 319 320 321 320 322 323 322 322 324 325 322 325
299 295 289 292 292 295 297 296 297 302 307 306 306 306 305 306 303 304 296 300 303 294 294 298 308 312 313 313 317 319 318 318 319 319 319 320 321 321 322 324 325 324 321 324
296 295 289 294 299 301 303 305 304 306 310 308 307 307 307 303 301 303 299 297 295 298 295 304 310 314 316 316 316 316 316 317 319 319 317 318 320 320 321 321 317 317 321 322
298 296 295 300 300 301 304 304 304 310 310 312 309 303 301 299 302 299 297 296 292 298 307 312 315 315 314 315 315 315 319 319 318 318 320 318 319 318 317 317 318 319 319 319
298 298 302 300 300 301 302 306 307 315 309 302 305 299 297 302 298 296 297 298 305 310 313 317 318 316 316 315 314 314 319 320 321 322 321 320 321 321 317 316 318 317 317 316
Wind_Speed
18 20 22 24 26 34 11 7 7 8 4 8 8 12 19 7 7 5 8 10 15 16 8 16 5 14 9 4 7 6 4 9 9 16 14 3 6 11 13 10 12 8 10 9
16 19 20 21 21 20 10 8 11 7 6 9 12 15 12 6 9 11 9 10 10 14 12 8 8 12 11 6 2 4 6 5 9 16 16 13 8 3 11 9 8 11 11 10
15 17 19 21 21 19 9 7 6 8 7 11 16 14 11 9 10 12 10 10 11 9 10 11 8 11 9 7 9 7 2 10 10 12 18 12 10 10 10 11 8 11 13 15
14 16 18 21 24 23 6 7 5 9 5 0 10 9 12 9 9 9 12 8 14 9 12 11 12 12 8 9 10 3 5 11 14 15 16 17 17 18 17 17 16 17 17 19
13 14 17 19 24 31 6 7 7 12 13 12 9 6 9 13 15 12 9 11 16 12 13 12 13 11 12 11 15 9 8 13 11 13 15 17 21 20 19 19 19 21 19 17
12 13 14 17 19 22 7 10 12 8 9 11 9 11 14 13 9 12 6 10 12 12 12 15 15 11 7 7 5 9 7 8 9 13 14 18 17 18 17 17 15 15 14 8
14 12 11 13 13 13 8 10 8 7 10 11 12 12 12 10 7 9 8 7 7 10 11 13 12 13 10 12 12 9 9 8 9 13 14 19 18 21 15 9 7 7 9 5
13 11 10 11 12 12 9 10 7 8 10 13 14 10 9 9 8 8 11 13 5 7 9 10 11 11 14 17 18 13 13 10 11 12 14 18 22 9 13 7 7 8 7 5
12 11 10 8 10 12 9 10 6 7 8 4 14 14 6 9 10 12 12 13 10 8 6 9 15 14 16 14 19 18 17 11 7 11 17 18 14 2 6 7 7 7 9 9
10 11 10 9 9 10 9 8 10 7 9 13 11 7 9 12 9 9 11 8 10 9 8 11 14 16 18 18 18 17 13 9 11 12 14 17 15 10 9 7 2 6 3 4
10 9 9 9 8 9 9 8 6 6 9 15 14 13 11 11 8 9 12 7 7 7 10 11 12 14 15 18 17 16 14 13 14 13 17 21 15 2 7 7 2 1 3 4
9 9 9 9 8 8 8 8 7 7 7 13 18 17 17 17 15 12 10 13 12 5 8 7 9 13 13 15 15 15 15 14 10 10 3 5 4 1 3 7 2 3 4 5
9 9 8 8 7 7 7 9 9 6 7 12 14 13 16 18 18 14 11 10 13 11 7 9 10 11 11 12 14 17 18 10 11 11 11 9 8 5 8 7 6 2 5 8
10 7 8 8 7 7 7 8 9 6 6 7 8 5 8 6 8 13 15 15 15 14 10 9 11 13 11 15 19 16 9 6 13 10 8 10 11 12 8 6 5 4 6 10
10 8 7 7 7 7 9 9 9 7 8 8 11 22 19 14 11 11 13 14 14 10 11 11 12 12 14 14 17 16 13 8 9 11 5 11 11 4 3 3 6 6 10 9
11 9 6 6 7 6 7 4 7 4 7 5 6 5 14 13 10 18 16 12 11 11 12 11 13 20 12 14 16 21 21 17 16 15 9 6 8 7 5 5 8 13 13 14
7 7 6 6 6 7 6 6 3 9 8 3 7 6 11 10 12 11 11 13 8 12 12 13 14 15 11 13 17 24 23 23 11 10 7 9 10 8 9 11 11 12 13 13
6 6 5 4 4 9 8 10 14 6 4 5 6 6 8 15 9 9 10 11 11 13 13 13 10 11 12 19 22 23 22 24 14 15 11 10 8 11 11 10 12 15 15 14
6 5 4 6 5 5 3 14 14 4 4 5 5 9 9 5 7 6 9 8 12 11 13 14 14 13 10 13 20 23 20 21 18 16 6 12 13 14 14 14 15 14 15 15
6 6 3 4 4 14 12 6 5 5 6 6 7 10 13 12 6 3 7 4 9 11 10 14 15 15 22 23 23 8 8 15 17 14 6 20 6 10 12 10 11 13 15 12
5 4 4 2 1 6 4 5 6 6 5 7 8 13 12 10 11 2 2 2 5 6 4 10 14 17 20 23 21 10 7 21 20 13 7 9 10 5 11 9 11 9 15 11
1 3 3 3 4 5 5 5 5 6 6 7 9 7 10 7 5 2 4 2 4 7 8 2 6 12 3 10 13 13 10 11 23 4 4 6 9 8 12 12 10 7 15 15
6 4 3 2 4 4 7 10 8 7 5 4 4 5 1 2 2 3 4 6 6 5 6 4 4 5 3 2 21 7 21 4 5 6 5 2 8 8 7 10 12 12 11 13
3 3 3 5 5 8 10 6 4 6 1 4 2 4 4 4 5 2 4 5 3 7 7 2 6 5 9 7 5 7 11 6 5 5 3 7 6 7 10 11 12 7 12 5
3 2 5 8 8 7 11 3 4 4 2 1 1 5 4 4 4 5 4 6 6 5 3 3 2 4 5 6 7 5 2 3 2 9 6 7 6 8 11 11 12 16 8 16
4 7 8 8 9 6 6 7 7 7 6 3 4 4 4 4 3 4 0 5 3 4 0 1 4 4 6 6 5 4 5 4 5 6 9 9 9 11 10 10 12 8 10 15
6 6 6 6 8 7 8 6 7 5 5 3 4 5 2 2 3 2 2 4 4 4 5 4 5 5 6 6 5 7 2 5 5 7 7 9 6 10 9 12 12 13 13 12
Wind_Direction
339 340 342 345 347 339 342 296 257 122 224 231 232 241 240 297 288 189 255 273 291 293 269 269 262 270 28 83 178 279 253 291 256 265 292 228 278 295 305 281 282 273 313 294
334 340 340 343 350 3 316 295 299 281 224 247 233 244 236 259 265 248 260 237 253 270 280 283 274 271 82 85 212 13 342 253 257 248 248 218 203 286 281 251 276 265 274 281
327 337 339 339 342 347 319 276 275 199 211 256 285 295 298 222 205 287 313 288 284 256 261 262 249 268 137 129 69 41 319 277 295 288 309 315 298 257 220 259 270 280 277 287
324 331 336 339 338 339 296 244 282 21 286 279 280 264 280 286 221 190 264 241 259 247 260 247 242 239 255 146 147 204 264 261 273 276 285 296 295 290 287 279 279 274 283 289
323 328 334 341 340 333 234 296 344 350 305 296 292 276 265 268 275 278 192 234 271 229 257 253 266 254 240 233 153 189 240 255 259 279 288 282 277 276 274 272 271 273 277 280
324 327 335 342 350 339 316 14 331 288 293 287 249 261 258 249 267 273 309 301 310 257 19 351 333 313 302 332 273 207 199 266 277 270 292 297 283 270 267 273 275 273 271 313
322 322 332 339 351 359 318 311 318 284 283 260 268 263 307 273 350 321 307 278 251 22 348 322 292 286 291 299 282 260 248 272 282 277 280 270 266 267 272 273 294 309 307 347
323 317 320 333 336 343 317 313 301 305 287 289 296 273 269 299 309 271 276 287 303 11 321 293 267 260 265 262 266 251 239 242 259 263 260 272 278 313 232 237 257 354 318 308
311 318 317 318 328 337 315 308 355 283 289 272 349 321 333 301 275 254 235 245 267 293 286 272 250 247 261 252 234 229 243 232 242 261 278 278 288 118 69 74 252 63 39 29
298 311 321 311 314 326 316 294 296 290 285 281 307 286 342 324 307 285 299 311 231 209 239 253 253 252 241 245 260 280 207 209 240 243 248 256 269 277 138 240 61 76 21 15
282 293 310 304 302 316 315 310 300 310 297 296 298 319 310 300 260 285 17 300 242 267 244 255 267 267 264 269 265 242 234 207 221 233 247 250 6 102 269 60 116 314 354 337
267 277 292 299 291 294 314 273 16 341 276 299 316 295 288 290 292 302 303 295 309 318 326 258 274 268 269 270 271 268 251 254 227 247 92 214 236 269 102 273 310 295 285 265
256 261 276 286 277 276 287 310 322 284 272 270 246 250 245 227 236 255 269 270 281 293 320 312 294 287 294 274 257 265 265 231 255 268 251 202 191 220 210 237 236 295 327 308
262 257 259 267 263 255 262 293 300 297 292 282 275 191 269 249 250 226 235 262 282 291 297 282 279 276 277 284 296 299 300 51 323 273 258 259 262 262 249 247 151 219 267 294
247 251 245 255 262 258 267 270 268 267 277 312 313 317 284 264 255 255 241 241 247 256 257 253 255 261 276 283 284 278 284 285 217 263 282 358 271 254 243 344 311 272 269 285
231 229 232 238 246 253 274 243 180 263 261 279 288 324 271 253 249 221 242 248 243 248 252 253 258 258 253 270 272 280 284 282 296 258 279 267 295 353 8 311 275 276 277 263
200 204 205 222 235 249 251 344 292 334 307 263 258 259 214 220 245 235 240 222 228 250 246 243 256 263 266 254 257 263 280 280 268 319 314 275 273 285 291 282 268 252 252 256
175 192 208 234 244 271 265 242 206 229 264 263 263 263 260 206 223 233 206 228 220 222 247 253 254 277 261 248 255 273 264 276 262 274 257 250 248 242 254 261 256 252 241 235
180 179 199 213 238 234 269 139 131 203 288 282 277 266 286 161 257 298 300 249 242 233 230 234 220 223 238 257 241 247 249 256 272 256 254 252 241 241 239 247 248 236 251 251
166 206 204 232 206 127 127 155 169 201 211 232 251 276 278 303 303 320 344 356 306 266 254 240 233 242 242 235 255 306 328 289 287 301 133 260 271 260 259 268 267 277 241 272
197 225 223 35 80 210 207 229 206 194 225 207 244 236 256 247 258 239 100 342 329 273 270 265 242 236 238 227 234 174 197 260 239 234 269 283 279 293 262 263 284 322 2 13
284 277 261 187 218 209 240 202 210 217 243 188 217 233 195 229 281 125 183 237 229 261 341 349 250 244 242 323 305 195 125 259 264 228 258 346 325 311 296 288 285 120 181 231
267 231 235 205 217 228 232 197 203 211 218 360 360 290 266 194 198 209 220 212 243 1 267 220 275 309 177 38 309 141 188 154 65 53 21 9 357 312 320 335 332 3 47 350
261 226 228 236 217 227 222 258 95 271 168 221 259 270 231 192 188 213 254 296 217 216 221 66 35 100 131 186 286 45 66 65 50 62 18 32 14 343 340 2 30 51 114 235
239 229 243 230 257 10 302 316 225 217 341 236 308 236 237 195 227 201 199 234 238 5 324 321 347 1 72 59 38 33 50 141 133 125 97 79 49 36 51 35 66 45 39 67
239 217 247 277 301 304 299 312 334 341 322 310 237 263 239 212 268 226 76 338 351 269 101 222 191 70 51 48 32 48 353 10 43 149 99 67 64 85 76 58 69 86 65 67
226 234 234 291 298 299 302 321 323 311 302 253 230 232 85 52 266 112 257 244 202 135 77 46 50 55 63 55 1 300 12 40 47 91 98 108 105 106 105 99 88 82 75 68